Total_Precipitation_Accumulation
3.64 3.75 3.87 4.09 3.80 3.85 4.32 4.52 4.33 4.52 4.53 4.15 3.78 3.41 3.25 3.01 2.93 3.03 3.25 3.26 3.14 3.26 3.59 3.79 3.64 3.53 3.29 3.00 2.88 2.81 2.75 2.63 2.54 2.32 2.13 2.25 2.48 2.34 1.99 1.81 1.77 1.59 1.52
3.95 4.16 4.08 4.17 3.92 3.70 3.92 4.18 4.21 4.89 4.74 4.58 4.06 3.66 3.53 3.41 3.20 3.14 3.26 3.56 3.41 3.16 3.27 3.73 3.89 3.85 3.69 3.40 3.20 3.02 2.94 2.85 2.55 2.18 2.04 2.09 2.28 2.40 2.22 2.01 1.82 1.65 1.48
3.89 4.14 4.33 4.29 4.03 3.77 4.02 4.18 4.40 4.69 4.46 4.33 4.10 3.87 3.70 3.62 3.39 3.28 3.57 3.82 3.57 3.40 3.29 3.48 3.87 4.07 4.13 4.15 3.84 3.43 3.06 2.82 2.63 2.38 2.19 2.12 2.25 2.39 2.36 2.23 2.02 1.77 1.54
3.88 4.13 4.05 3.97 4.07 3.99 4.25 4.50 4.62 4.70 4.61 4.44 4.21 3.87 3.70 3.77 3.36 3.22 3.26 3.34 3.45 3.20 3.39 3.69 3.94 4.02 4.26 4.47 4.48 4.37 3.87 3.27 2.96 2.64 2.37 2.25 2.30 2.30 2.27 2.24 2.11 1.81 1.55
3.69 3.92 3.91 4.04 4.11 4.11 4.21 3.86 4.46 4.51 4.61 4.46 3.87 3.70 3.41 3.41 3.30 2.96 2.94 2.79 2.97 3.10 3.16 3.27 3.58 3.68 4.20 4.70 5.00 5.10 4.95 4.32 3.61 3.08 2.79 2.55 2.43 2.23 2.09 2.06 2.06 1.90 1.69
3.66 3.89 3.90 4.04 4.06 4.17 4.25 4.24 4.52 4.47 4.32 4.27 3.45 3.33 3.23 2.96 2.89 2.88 2.68 2.66 2.79 2.68 2.86 3.12 3.45 3.18 3.67 4.14 4.37 4.83 5.19 4.96 4.31 3.72 3.42 3.18 2.96 2.62 2.30 2.19 2.20 2.16 1.97
3.75 4.14 4.02 4.39 4.28 4.06 4.03 4.12 4.39 4.31 4.04 4.11 4.08 3.56 2.97 2.64 2.67 2.58 2.66 2.77 2.61 2.68 3.03 3.44 3.59 3.37 3.07 3.16 3.22 3.62 4.48 5.14 5.04 4.56 4.16 3.78 3.57 3.31 2.71 2.50 2.43 2.34 2.23
3.67 3.70 4.11 4.08 4.11 4.23 4.14 4.09 4.30 4.14 3.75 3.95 4.23 4.18 3.44 3.23 2.73 2.21 2.47 2.66 2.74 3.01 3.12 3.16 3.54 3.68 3.35 3.41 2.76 2.70 3.56 4.70 5.28 5.27 4.81 4.33 4.02 3.80 3.40 3.22 2.91 2.56 2.39
3.30 3.46 3.64 3.84 4.18 4.04 4.07 4.15 4.06 4.01 3.77 3.74 3.95 4.29 3.83 3.39 2.87 2.32 2.18 2.44 2.83 3.12 3.09 3.14 3.23 3.42 3.49 3.72 3.52 3.05 2.98 3.40 4.37 5.29 5.37 4.92 4.36 3.96 3.81 3.81 3.60 3.11 2.76
3.26 3.28 3.40 3.60 3.79 3.58 3.65 3.35 3.47 3.78 3.95 3.68 3.79 3.73 3.64 3.58 3.47 2.91 2.47 2.41 2.68 2.87 3.05 3.03 3.16 3.34 3.55 3.97 4.05 3.52 3.10 2.91 3.29 4.43 5.31 5.40 4.89 4.38 4.29 4.40 4.46 4.07 3.44
3.25 3.18 3.20 3.28 3.32 3.18 3.26 3.19 3.43 3.42 3.44 3.45 3.57 3.64 3.74 3.72 3.53 3.34 2.96 2.85 2.73 2.47 2.54 2.76 2.99 3.16 3.36 3.79 4.03 3.70 3.55 3.22 3.10 3.35 4.04 4.72 4.89 4.74 4.53 4.62 4.94 5.01 4.60
3.07 2.98 2.90 2.96 2.99 2.99 3.03 3.09 3.25 3.15 3.20 3.36 3.43 3.46 3.64 3.67 3.73 3.72 3.19 2.96 2.74 2.24 2.21 2.21 2.46 2.76 3.16 3.49 3.38 3.51 3.38 3.12 2.95 2.92 3.03 3.48 3.91 4.21 4.37 4.61 5.08 5.61 5.71
2.57 2.68 2.58 2.71 2.75 2.80 2.84 2.96 3.06 3.05 3.19 3.35 3.25 3.35 3.43 3.37 3.54 3.68 3.61 3.12 2.79 2.37 2.42 2.34 2.31 2.54 2.68 3.08 3.18 3.13 2.87 2.74 2.55 2.49 2.45 2.62 2.90 3.21 3.52 3.92 4.48 5.09 5.56
2.20 2.41 2.54 2.56 2.55 2.58 2.67 2.97 2.81 2.89 3.13 3.17 3.06 3.51 3.38 3.14 3.30 3.38 3.58 3.72 3.31 2.82 2.79 2.62 2.47 2.45 2.56 2.78 2.82 2.77 2.49 2.43 2.17 2.05 2.00 2.00 2.02 2.18 2.45 2.79 3.24 3.66 4.09
2.18 2.25 2.30 2.42 2.54 2.69 2.88 3.09 2.92 3.03 3.30 3.20 3.33 3.61 3.43 3.26 3.28 3.26 3.55 3.90 3.95 3.49 3.08 2.81 2.58 2.46 2.43 2.41 2.53 2.33 2.31 2.35 2.10 1.93 1.81 1.73 1.72 1.69 1.79 1.94 2.19 2.46 2.68
2.23 2.11 2.08 2.17 2.28 2.42 2.64 2.83 2.73 2.88 3.14 3.13 3.19 3.35 3.32 3.23 3.45 3.45 3.57 3.87 4.12 4.02 3.31 2.99 2.84 2.50 2.55 2.15 2.34 2.20 2.17 2.18 1.94 1.80 1.69 1.67 1.68 1.68 1.67 1.67 1.76 1.91 2.10
2.20 2.11 2.09 2.13 2.14 2.11 2.20 2.38 2.39 2.66 2.72 2.76 2.72 2.81 2.79 3.06 3.28 3.28 3.49 3.68 3.93 4.18 3.66 3.29 3.29 3.00 2.97 2.69 2.46 2.26 2.04 1.98 1.79 1.76 1.62 1.55 1.53 1.55 1.59 1.53 1.51 1.59 1.73
1.97 2.07 2.12 2.06 1.96 2.03 2.19 2.20 2.25 2.49 2.59 2.55 2.56 2.67 2.52 2.78 2.94 3.04 3.27 3.43 3.69 4.14 3.92 3.55 3.41 3.27 3.18 3.01 2.81 2.59 2.11 1.82 1.79 1.89 1.71 1.57 1.52 1.49 1.50 1.45 1.39 1.37 1.40
1.80 1.87 1.93 1.88 1.85 2.00 2.25 2.36 2.49 2.54 2.44 2.41 2.39 2.32 2.26 2.48 2.56 2.79 2.99 3.01 3.21 3.63 3.72 3.35 3.15 3.37 3.22 3.03 3.10 2.72 2.43 2.34 1.81 1.81 1.74 1.57 1.51 1.43 1.41 1.42 1.39 1.31 1.27
1.80 1.86 1.93 2.04 2.10 2.11 2.10 2.15 2.31 2.44 2.45 2.29 2.14 2.04 2.08 2.27 2.29 2.48 2.54 2.74 2.97 3.10 3.32 3.24 3.07 3.17 3.18 3.10 3.31 3.07 2.87 2.69 2.28 1.87 1.88 1.69 1.60 1.53 1.43 1.37 1.35 1.35 1.36
1.67 1.89 2.12 2.21 2.21 2.11 1.96 2.08 2.18 2.08 2.10 1.99 1.86 1.74 1.68 1.72 1.80 2.00 1.95 2.25 2.58 2.69 2.77 2.91 2.91 3.00 3.20 3.36 3.21 3.21 3.06 2.88 2.64 2.38 2.34 1.96 1.68 1.49 1.45 1.41 1.40 1.42 1.46
1.70 1.90 1.97 2.03 2.00 1.79 1.94 1.84 1.75 1.76 1.81 1.81 1.81 1.77 1.58 1.50 1.53 1.61 1.64 1.74 2.00 2.16 2.35 2.63 2.71 2.76 2.98 3.27 3.38 3.39 3.29 3.07 2.81 2.59 2.72 2.66 2.28 1.97 1.74 1.46 1.44 1.45 1.51
1.82 1.82 1.77 1.81 1.87 2.00 1.88 1.66 1.58 1.54 1.65 1.71 1.76 1.73 1.45 1.34 1.45 1.41 1.54 1.57 1.67 1.76 1.89 2.18 2.29 2.31 2.59 2.93 3.33 3.34 3.39 3.18 2.92 2.87 2.98 2.98 3.05 2.78 2.17 1.80 1.73 1.51 1.54
1.93 1.87 1.73 1.76 1.79 1.77 1.76 1.59 1.60 1.47 1.47 1.57 1.66 1.72 1.72 1.66 1.57 1.61 1.63 1.55 1.44 1.49 1.56 1.53 1.63 1.88 2.11 2.42 2.85 2.98 3.25 3.41 3.22 3.12 3.18 3.22 3.26 3.47 2.95 2.36 2.19 1.88 1.78
1.93 2.00 1.92 1.84 1.81 1.81 1.81 1.65 1.65 1.54 1.57 1.57 1.68 1.72 1.71 1.65 1.65 1.61 1.58 1.56 1.43 1.38 1.39 1.41 1.42 1.58 1.83 1.99 2.34 2.68 2.95 3.18 3.24 3.33 3.41 3.46 3.36 3.54 3.78 3.30 2.60 2.26 1.98
2.21 2.26 2.13 2.05 2.06 2.10 2.15 1.95 1.88 1.70 1.68 1.67 1.78 1.77 1.68 1.59 1.67 1.55 1.42 1.47 1.46 1.49 1.56 1.51 1.53 1.59 1.64 1.81 2.14 2.41 2.67 2.99 3.03 3.09 2.92 2.95 2.97 3.16 3.61 3.77 3.33 2.65 2.16